Weather Roundup
Issued by NWS Corpus Christi, TX

Home | Current Version | Previous Version | Text Only | Print | Product List | Glossary On
Versions: 1 2 3 4 5 6 7 8 9 10 11 12 13 14 15 16 17 18 19 20 21 22 23 24 25 26 27 28 29 30 31 32 33 34 35 36 37 38 39 40 41 42 43 44 45 46 47 48 49 50
000
ASUS44 KCRP 011510
HRRCRP

SOUTH TEXAS REGIONAL WEATHER ROUNDUP
NATIONAL WEATHER SERVICE CORPUS CHRISTI TX
900 AM CST SUN MAR 01 2015


TXZ229>244-011600-
...CORPUS CHRISTI AREA OBSERVATIONS...

CITY           SKY/WX    TMP DP  RH WIND       PRES   REMARKS
CORPUS CHRISTI FOG       49  48  97 NW9       30.20R VSB 1/4
NAS CORPUS CHR CLOUDY    50  50 100 N10       30.19R FOG
ROCKPORT       FOG       50  49  96 N12       30.18R VSB 3/4
KINGSVILLE NAS CLOUDY    47  47 100 NW9       30.22R FOG
ALICE          FOG       46  44  93 NW7       30.22R VSB 1
FALFURRIAS     CLOUDY    46  44  95 NW3       30.21R VSB 1
$$

...VICTORIA AREA OBSERVATIONS...

CITY           SKY/WX    TMP DP  RH WIND       PRES   REMARKS
VICTORIA       CLOUDY    45  44  97 N14       30.21S FOG
BEEVILLE       FOG       43  43 100 N13       30.18F VSB 1/2
PLEASANTON     FOG       41  41  98 N5        30.25R VSB 1
SAN ANTONIO    DRZL/FOG  42  40  92 N9        30.24R VSB 3/4
$$

...LAREDO AREA OBSERVATIONS...

CITY           SKY/WX    TMP DP  RH WIND       PRES   REMARKS
LAREDO         LGT RAIN  44  43  97 N5        30.24S FOG
COTULLA        CLOUDY    45  43  93 N7        30.22F FOG
DEL RIO        CLOUDY    45  43  93 CALM      30.23R FOG
MCALLEN        CLOUDY    49  47  93 NW6       30.22R FOG
HEBBRONVILLE   RAIN     N/A N/A N/A NW13      30.19F
$$

...OTHER TEXAS OBSERVATIONS...

CITY           SKY/WX    TMP DP  RH WIND       PRES   REMARKS
BROWNSVILLE    CLOUDY    50  49  96 NW7       30.20R FOG
HOUSTON        LGT RAIN  53  52  96 NE6       30.22R VSB 1/2
COL. STATION   FOG       40  39  97 N10       30.27R VSB 3/4 WCI  33
AUSTIN         DRIZZLE   37  37 100 N10       30.29R FOG     WCI  30
WACO           MIX PCPN  34  33  96 N13       30.33R FOG     WCI  25
FORT WORTH     CLOUDY    33  32  96 N9        30.35R FOG
WICHITA FALLS  CLOUDY    31  29  92 N8        30.37R FOG
LUBBOCK        CLOUDY    27  26  96 CALM      30.23R FOG
EL PASO        PTSUNNY   47  30  51 S3        30.10R
$$

...MARINE OBSERVATIONS...

STATION/POSITION TIME  SKY/WX   TEMP    WIND        PRES    VSBY  WAVE   SWELL
                                AIR SEA DIR/SP/G                  HT/PER HT/PER
                 (UTC)          (F)     (DEG/KT/KT) (MB)    (MI)  (FT/S) (FT/S)
PORT ARANSAS     1500            51 55  350/ 11/ 12 1022.0R
BUOY 90 E PORT A 1500            70 67  150/ 12/ 14 1022.0R         6/ 8   5/ 8
BUOY 45 SE BAFFI 1500            61 65  330/  8/ 10 1021.5R         5/ 8   5/ 8
BUOY 200 E PT IS 1500            71 70  120/ 14/ 17 1022.0R         6/ 8   5/ 8
BUOY 15 E GALVES 1500            60 56  120/ 10/ 12 1022.2R         4/ 7   3/ 7
$$



USA.gov is the U.S. government's official web portal to all federal, state and local government web resources and services.